EN

Hourly Weather Ziemiecice

Today, 1 October, Thursday

Time Temperature Precipitation Wind Pressure Humidity
00:00 +12°C° 0.4 mm 3 mps 735 mmHg 93%
01:00 +12°C° 0 mm 3 mps 734 mmHg 94%
02:00 +13°C° 0.1 mm 2 mps 734 mmHg 94%
03:00 +13°C° 0.1 mm 2 mps 734 mmHg 94%
04:00 +13°C° 0.1 mm 2 mps 733 mmHg 95%
05:00 +13°C° 0.2 mm 2 mps 733 mmHg 95%
06:00 +13°C° 0.2 mm 2 mps 733 mmHg 95%
07:00 +13°C° 0 mm 2 mps 733 mmHg 95%
08:00 +13°C° 0.3 mm 2 mps 732 mmHg 94%
09:00 +13°C° 0.3 mm 2 mps 732 mmHg 93%
10:00 +13°C° 0.3 mm 2 mps 732 mmHg 93%
11:00 +13°C° 0.4 mm 2 mps 732 mmHg 93%
12:00 +13°C° 0.4 mm 2 mps 732 mmHg 93%
13:00 +13°C° 0.4 mm 2 mps 732 mmHg 93%
14:00 +13°C° 0.2 mm 2 mps 731 mmHg 92%
15:00 +13°C° 0.2 mm 2 mps 731 mmHg 92%
16:00 +12°C° 0.2 mm 2 mps 731 mmHg 92%
17:00 +12°C° 0.5 mm 2 mps 731 mmHg 93%
18:00 +12°C° 0.5 mm 1 mps 731 mmHg 93%
19:00 +12°C° 0.5 mm 1 mps 731 mmHg 94%
20:00 +12°C° 0.1 mm 1 mps 731 mmHg 94%
21:00 +12°C° 0.1 mm 1 mps 731 mmHg 94%
22:00 +11°C° 0.1 mm 0 mps 731 mmHg 95%
23:00 +11°C° 0 mm 0 mps 731 mmHg 94%

Tomorrow, 2 October, Friday

Time Temperature Precipitation Wind Pressure Humidity
00:00 +11°C° 0 mm 0 mps 731 mmHg 94%
01:00 +11°C° 0 mm 0 mps 731 mmHg 94%
02:00 +11°C° 0.1 mm 0 mps 731 mmHg 94%
03:00 +11°C° 0.1 mm 0 mps 731 mmHg 94%
04:00 +12°C° 0.1 mm 1 mps 730 mmHg 94%
05:00 +12°C° 0.1 mm 1 mps 731 mmHg 94%
06:00 +12°C° 0.1 mm 1 mps 731 mmHg 94%
07:00 +12°C° 0.1 mm 1 mps 731 mmHg 94%
08:00 +13°C° 0 mm 1 mps 731 mmHg 92%
09:00 +13°C° 0 mm 2 mps 731 mmHg 90%
10:00 +14°C° 0 mm 2 mps 731 mmHg 88%
11:00 +14°C° 0 mm 2 mps 731 mmHg 85%
12:00 +15°C° 0 mm 2 mps 731 mmHg 81%
13:00 +16°C° 0 mm 2 mps 731 mmHg 78%
14:00 +16°C° 0 mm 2 mps 731 mmHg 77%
15:00 +17°C° 0 mm 3 mps 731 mmHg 75%
16:00 +17°C° 0 mm 3 mps 731 mmHg 74%
17:00 +16°C° 0 mm 3 mps 731 mmHg 78%
18:00 +16°C° 0 mm 3 mps 731 mmHg 82%
19:00 +14°C° 0 mm 3 mps 731 mmHg 85%
20:00 +14°C° 0 mm 4 mps 731 mmHg 83%
21:00 +15°C° 0 mm 4 mps 731 mmHg 81%
22:00 +15°C° 0 mm 5 mps 731 mmHg 78%
23:00 +15°C° 0 mm 5 mps 731 mmHg 79%

Day after tomorrow, 3 October, Saturday

Time Temperature Precipitation Wind Pressure Humidity
00:00 +14°C° 0 mm 5 mps 730 mmHg 80%
01:00 +14°C° 0 mm 5 mps 730 mmHg 81%
02:00 +14°C° 0 mm 5 mps 730 mmHg 79%
03:00 +14°C° 0 mm 4 mps 729 mmHg 78%
04:00 +14°C° 0 mm 4 mps 729 mmHg 77%
05:00 +14°C° 0 mm 5 mps 729 mmHg 75%
06:00 +15°C° 0 mm 5 mps 729 mmHg 73%
07:00 +15°C° 0 mm 5 mps 729 mmHg 70%
08:00 +17°C° 0 mm 6 mps 729 mmHg 63%
09:00 +21°C° 0 mm 7 mps 729 mmHg 55%
10:00 +23°C° 0 mm 8 mps 729 mmHg 48%
11:00 +24°C° 0 mm 8 mps 729 mmHg 46%
12:00 +24°C° 0 mm 8 mps 729 mmHg 44%
13:00 +26°C° 0 mm 8 mps 729 mmHg 42%
14:00 +26°C° 0 mm 8 mps 729 mmHg 46%
15:00 +24°C° 0 mm 8 mps 729 mmHg 49%
16:00 +23°C° 0 mm 7 mps 729 mmHg 52%
17:00 +22°C° 0 mm 7 mps 729 mmHg 55%
18:00 +21°C° 0 mm 6 mps 729 mmHg 58%
19:00 +20°C° 0 mm 5 mps 729 mmHg 61%
20:00 +20°C° 0 mm 5 mps 729 mmHg 61%
21:00 +20°C° 0 mm 5 mps 729 mmHg 60%
22:00 +20°C° 0 mm 5 mps 729 mmHg 60%
23:00 +20°C° 0 mm 5 mps 729 mmHg 60%

4 October, Sunday

Time Temperature Precipitation Wind Pressure Humidity
00:00 +20°C° 0 mm 5 mps 729 mmHg 61%
01:00 +20°C° 0 mm 5 mps 728 mmHg 61%
02:00 +19°C° 0 mm 5 mps 728 mmHg 60%
03:00 +19°C° 0 mm 5 mps 728 mmHg 60%
04:00 +19°C° 0 mm 5 mps 728 mmHg 60%
05:00 +19°C° 0 mm 5 mps 728 mmHg 61%
06:00 +19°C° 0 mm 6 mps 729 mmHg 63%
07:00 +19°C° 0 mm 6 mps 729 mmHg 65%
08:00 +20°C° 0 mm 6 mps 729 mmHg 63%
09:00 +20°C° 0 mm 6 mps 730 mmHg 61%
10:00 +20°C° 0 mm 6 mps 731 mmHg 59%
11:00 +21°C° 0 mm 6 mps 731 mmHg 56%
12:00 +21°C° 0 mm 7 mps 732 mmHg 53%
13:00 +21°C° 0 mm 7 mps 732 mmHg 50%
14:00 +21°C° 0 mm 6 mps 733 mmHg 51%
15:00 +21°C° 0 mm 5 mps 733 mmHg 52%
16:00 +21°C° 0 mm 4 mps 733 mmHg 53%
17:00 +20°C° 0 mm 4 mps 733 mmHg 56%
18:00 +19°C° 0 mm 3 mps 734 mmHg 60%
19:00 +17°C° 0 mm 2 mps 734 mmHg 63%
20:00 +17°C° 0 mm 2 mps 734 mmHg 65%
21:00 +16°C° 0 mm 3 mps 734 mmHg 67%
22:00 +16°C° 0 mm 3 mps 734 mmHg 69%
23:00 +16°C° 0 mm 3 mps 734 mmHg 69%

5 October, Monday

Time Temperature Precipitation Wind Pressure Humidity
00:00 +14°C° 0 mm 3 mps 734 mmHg 69%
01:00 +14°C° 0 mm 3 mps 734 mmHg 68%
02:00 +14°C° 0 mm 3 mps 733 mmHg 67%
03:00 +16°C° 0 mm 3 mps 733 mmHg 67%
04:00 +16°C° 0 mm 3 mps 733 mmHg 66%
05:00 +16°C° 0 mm 3 mps 733 mmHg 69%
06:00 +16°C° 0 mm 3 mps 732 mmHg 72%
07:00 +16°C° 0 mm 3 mps 732 mmHg 75%
08:00 +18°C° 0 mm 4 mps 732 mmHg 67%
09:00 +20°C° 0 mm 5 mps 732 mmHg 59%
10:00 +22°C° 0 mm 6 mps 732 mmHg 52%
11:00 +22°C° 0 mm 6 mps 732 mmHg 49%
12:00 +23°C° 0 mm 7 mps 732 mmHg 46%
13:00 +24°C° 0 mm 8 mps 732 mmHg 44%
14:00 +23°C° 0 mm 7 mps 732 mmHg 46%
15:00 +22°C° 0 mm 6 mps 732 mmHg 48%
16:00 +21°C° 0 mm 5 mps 732 mmHg 51%
17:00 +20°C° 0 mm 4 mps 733 mmHg 55%
18:00 +19°C° 0 mm 3 mps 733 mmHg 60%
19:00 +18°C° 0 mm 3 mps 733 mmHg 64%
20:00 +17°C° 0 mm 3 mps 734 mmHg 68%
21:00 +17°C° 0 mm 3 mps 735 mmHg 71%
22:00 +16°C° 0 mm 3 mps 735 mmHg 75%
23:00 +14°C° 0 mm 3 mps 735 mmHg 76%

6 October, Tuesday

Time Temperature Precipitation Wind Pressure Humidity
00:00 +13°C° 0 mm 3 mps 735 mmHg 77%
01:00 +14°C° 0 mm 2 mps 735 mmHg 78%
02:00 +13°C° 0 mm 2 mps 736 mmHg 78%
03:00 +13°C° 0 mm 2 mps 736 mmHg 79%
04:00 +13°C° 0 mm 2 mps 736 mmHg 80%
05:00 +13°C° 0 mm 1 mps 736 mmHg 79%
06:00 +13°C° 0 mm 1 mps 736 mmHg 78%
07:00 +13°C° 0 mm 1 mps 737 mmHg 76%
08:00 +14°C° 0 mm 1 mps 737 mmHg 69%
09:00 +16°C° 0 mm 1 mps 737 mmHg 62%
10:00 +18°C° 0 mm 1 mps 737 mmHg 54%
11:00 +19°C° 0 mm 1 mps 737 mmHg 52%
12:00 +20°C° 0 mm 1 mps 737 mmHg 49%
13:00 +19°C° 0 mm 0 mps 736 mmHg 47%
14:00 +18°C° 0 mm 0 mps 736 mmHg 50%
15:00 +18°C° 0 mm 0 mps 736 mmHg 52%
16:00 +18°C° 0 mm 0 mps 736 mmHg 55%
17:00 +17°C° 0 mm 0 mps 736 mmHg 59%
18:00 +16°C° 0 mm 0 mps 736 mmHg 62%
19:00 +15°C° 0 mm 0 mps 736 mmHg 66%
20:00 +14°C° 0.1 mm 0 mps 736 mmHg 68%
21:00 +14°C° 0.1 mm 0 mps 737 mmHg 69%
22:00 +14°C° 0.1 mm 0 mps 737 mmHg 71%
23:00 +14°C° 0.1 mm 1 mps 737 mmHg 72%
Show more

We Need Your Consent

Meteoprog and our Service Providers may store and access personal data such as cookies, device identifiers or other similar technologies on your device and process such data to personalise content and ads, as well as provide social media features and to analyse the traffic.

  • Store and/or access information on your device

    Cookies, device identifiers or other information can be stored or accessed on your device for the purposes indicated above.

  • Personalised ads and content, ad and content measurement, audience insights, and products development

    Ads and content can be personalised based on a profile. More data can be added to better personalise ads and content. Ad and content performance can be measured. Insights about the audience who saw the ads and content can be derived. Such data can be used to develop or improve user’s experience, systems and software.

By clicking ‘I Agree’ you will allow the use of indicated cookies, device identifiers, web beacons or other similar technologies. Your settings can be changed in the browser on your device.

For certain purposes, legitimate interests may be relied on, rather than consent. You can read more about this in our Privacy and Cookie Policy.